Location: Arcones
(41.1182°N, 3.7238°W)
Time: 07:50:18
(UTC+00:00)

IRAS Rocket - Pass Details

Date: 21 March 2026
Orbit: 845 x 876 km, 100.1° (Epoch: 18 April)

Event Time Altitude Azimuth Distance (km) Brightness Sun altitude
Exits shadow 20:59:12 - 200° (SSW) 3,430 7.3 -28.1°
Reaches altitude 10° 21:02:04 10° 215° (SW) 2,512 6.7 -28.6°
Maximum altitude 21:06:18 22° 265° (W) 1,808 6.4 -29.3°
Drops below altitude 10° 21:10:32 10° 315° (NW) 2,511 7.5 -30.0°
Sets 21:13:29 0° 330° (NNW) 3,447 8.2 -30.5°
